Weather in Molodovsk

Russia / Zabaykalsky Krai     52°15′38″N   117°52′25″E
temp.,
°C
wind,
m/s
gust,
m/s
humid.,
%
clouds,
%
prec.,
mm/h
press.,
hPa
HPBL,
m
19 may, wed
wed1900:00+4n1139100 0.0 100412
03:00+1ene114757 0.0 100510
06:00+1e1150100 0.0 100418
09:00+8wsw1234100 0.0 1002381
12:00+9w2452100 0.1 10011145
15:00+11w3548100 0.2 9991705
18:00+14w273830 0.0 9971923
21:00+8se11553 0.0 99810
20 may, thu
thu2000:00+4e117586 0.0 100110
03:00+2e00845 0.0 100310
06:00+2w0080100 0.0 100510
09:00+10e004099 0.0 1004411
12:00+17wsw1319100 0.0 10021684
15:00+12sw3351100 0.3 10031311
18:00+7ne2590100 1.9 1003307
21:00+6ne489199 2.6 1003449
21 may, fri
fri2100:00+5ene3792100 0.0 1004363
03:00+5ne2594100 0.0 1002248
06:00+5ene4793100 0.1 1000408
09:00+7ene51084100 0.1 999595
12:00+9ene5779100 0.0 998757
15:00+8ne7128199 0.1 998647
18:00+5ne51090100 0.0 999590
21:00+4ne41094100 0.0 1002703
22 may, sat
sat2200:00+3ne3792100 0.1 1004663
03:00+3ne3788100 0.1 1004645
06:00+3n2788100 0.1 1005666
09:00+3nne3785100 0.3 1005686
12:00+3n2493100 1.1 1005488
15:00+4n2590100 2.2 1005599
18:00+5n258594 0.3 1006683
21:00+4nnw239199 0.4 1006160
23 may, sun
sun2300:00+3wnw2795100 0.1 1007648
03:00+3wnw2693100 0.3 1008537
06:00+3wnw1394100 0.1 1009257
09:00+6nw1465100 0.4 10091090
12:00+10n3643100 0.7 10082076
15:00+12n4627100 0.9 10072899
18:00+11nnw4536100 0.0 10091581
21:00+6nnw2257100 0.0 101114